Tracking 19489 objects as of 22-Jan-2019
HD Live streaming from Space Station
objects crossing your sky now

CE-SAT 1

Track CE-SAT 1 now!
10-day predictions


NORAD ID: 42769
Int'l Code: 2017-036E
Perigee: 500.0 km
Apogee: 523.5 km
Inclination: 97.4 °
Period: 94.7 minutes
Semi major axis: 6882 km
RCS: Unknown
Launch date: June 23, 2017
Source: Japan (JPN)
Launch site: SRIHARIKOTA (SRI)
aabbcc
Your satellite tracking list
Your tracking list is empty




NASA's NSSDC Master Catalog

Two Line Element Set (TLE):
1 42769U 17036E   19022.18917692  .00000392  00000-0  21055-4 0  9993
2 42769  97.3729  81.8018 0017077  22.5103 337.6877 15.20417961 87730
Source of the keplerian elements: AFSPC